Location: Blandford
(50.8667°N, 2.1667°W)
Time: 01:06:31
(UTC+00:00)

CZ-2C R/B - Pass Details

Date: 09 April 2020
Orbit: 705 x 907 km, 98.1° (Epoch: 30 May)

Event Time Altitude Azimuth Distance (km) Brightness Sun altitude
Rises 20:13:26 0° 185° (S) 3,146 5.9 -12.3°
Reaches altitude 10° 20:15:51 10° 192° (SSW) 2,208 5.2 -12.6°
Maximum altitude 20:20:23 40° 262° (W) 1,044 4.2 -13.2°
Drops below altitude 10° 20:24:52 10° 333° (NNW) 2,187 6.3 -13.8°
Sets 20:27:16 0° 341° (NNW) 3,113 7.0 -14.1°
